Probability
0 0 0 0 0 0 0 0 0 1 2 3 3 2 1 0 0 0 0 1 4 8 15 28 44 55 57 55 50 43 47 63 81 93 97 97 97 96 91 81 74 71 68 65
0 0 0 0 0 0 0 0 0 0 1 2 2 2 1 0 0 1 1 1 4 7 12 23 36 46 53 58 60 58 58 67 80 92 96 97 96 95 93 88 82 75 63 55
0 0 0 0 0 0 0 0 0 0 1 1 1 1 1 2 2 2 1 2 3 5 8 14 21 27 34 44 54 62 67 71 79 88 93 95 95 94 93 91 87 76 61 50
0 0 0 0 0 0 0 0 0 0 1 2 1 0 2 4 5 3 1 1 1 2 4 7 9 10 12 18 29 43 55 62 69 78 86 89 89 86 82 79 76 69 59 52
0 0 0 0 0 0 0 0 0 0 1 1 1 0 2 6 6 2 0 0 0 0 1 3 4 3 3 4 9 19 30 38 48 59 68 71 69 64 57 54 52 49 46 44
0 0 0 0 0 0 0 0 0 0 0 0 0 0 2 5 4 1 0 0 0 0 1 2 2 1 0 0 2 5 11 17 24 32 40 43 39 32 29 27 26 26 28 30
0 0 0 0 0 0 0 0 0 0 0 0 0 0 2 2 1 0 0 0 0 0 1 1 1 1 0 0 0 0 3 6 7 10 15 17 14 10 8 8 8 11 16 18
0 0 0 0 0 0 0 0 0 0 0 0 0 0 1 1 0 0 0 1 1 2 2 1 1 0 0 0 0 0 0 1 1 1 3 4 3 1 1 0 2 4 7 8
0 0 0 0 0 0 0 0 0 0 0 0 0 0 0 0 0 0 0 1 2 3 3 2 1 0 0 0 0 0 0 0 0 0 0 0 0 0 0 0 1 2 2 2
0 0 0 0 0 0 0 0 0 0 0 0 0 0 0 0 0 0 0 1 2 3 3 2 1 0 0 0 0 0 0 0 0 0 0 0 0 0 0 0 0 0 0 0
0 0 0 0 0 0 0 0 0 0 0 0 0 0 0 0 0 0 0 1 2 2 1 1 0 0 0 0 0 0 0 0 0 0 0 0 0 0 0 0 0 0 0 0
0 0 0 0 0 0 0 0 0 0 0 0 0 0 0 0 0 0 0 1 1 1 0 0 0 0 0 0 0 0 0 0 0 0 0 0 0 0 0 0 0 0 0 0
0 0 0 0 0 0 0 0 0 0 0 0 0 0 0 0 0 0 0 0 0 0 0 0 0 0 0 0 0 0 0 0 0 0 0 0 0 0 0 0 0 0 0 0
0 0 0 0 0 0 0 0 0 0 0 0 0 0 0 0 0 0 0 0 0 0 0 0 0 0 0 0 0 0 0 0 0 0 0 0 0 0 0 0 0 0 0 0
0 0 0 0 0 0 0 0 0 0 0 0 0 0 0 0 0 0 0 0 0 0 0 0 0 0 0 0 0 0 0 0 0 0 0 0 0 0 0 0 0 0 0 0
0 0 0 0 0 0 0 0 0 0 0 0 0 0 0 0 0 0 0 0 0 0 0 0 0 0 0 0 0 0 0 0 0 0 0 0 0 0 0 0 0 0 0 0
0 0 0 0 0 0 0 0 0 0 0 0 0 0 0 0 0 0 0 0 0 0 0 0 0 0 0 0 0 0 0 0 0 0 0 0 0 0 0 0 0 0 0 0
0 0 0 0 0 0 0 0 0 0 0 0 0 0 0 0 0 0 0 0 0 0 0 0 0 0 0 0 0 0 0 0 0 0 0 0 0 0 0 0 0 0 0 0
0 0 0 0 0 0 0 0 0 0 0 0 0 0 0 0 0 0 0 0 0 0 0 0 0 0 0 0 0 0 0 0 0 0 0 0 0 0 0 0 0 0 0 0
0 0 0 0 0 0 0 0 0 0 0 0 0 0 0 0 0 0 0 0 0 0 0 0 0 0 0 0 0 0 0 0 0 0 0 0 0 0 0 0 0 0 0 0
0 0 0 0 0 0 0 0 0 0 0 0 0 0 0 0 0 0 0 0 0 0 0 0 0 0 0 0 0 0 0 0 0 0 0 0 0 0 0 0 0 0 0 0
0 0 0 0 0 0 0 0 0 0 0 0 0 0 0 0 0 0 0 0 0 0 0 0 0 0 0 0 0 0 0 0 0 0 0 0 0 0 0 0 0 0 0 0
0 0 0 0 0 0 0 0 0 0 0 0 0 0 0 0 0 0 0 0 0 0 0 0 0 0 0 0 0 0 0 0 0 0 0 0 0 0 0 0 0 0 0 0
0 0 0 0 0 0 0 0 0 0 0 0 0 0 0 0 0 0 0 0 0 0 0 0 0 0 0 0 0 0 0 0 0 0 0 0 0 0 0 0 0 0 0 0
0 0 0 0 0 0 0 0 0 0 0 0 0 0 0 0 0 0 0 0 0 0 0 0 0 0 0 0 0 0 0 0 0 0 0 0 0 0 0 0 0 0 0 0
0 0 0 0 0 0 0 0 0 0 0 0 0 0 0 0 0 0 0 0 0 0 0 0 0 0 0 0 0 0 0 0 0 0 0 0 0 0 0 0 0 0 0 0
Wind_Speed
3 4 5 8 9 10 13 14 14 9 3 6 9 6 3 5 3 3 5 7 9 11 12 13 13 13 11 10 9 8 5 7 7 6 6 6 5 4 4 4 5 4 3 3
3 7 10 9 10 11 12 13 13 11 9 8 9 10 3 5 5 5 6 8 10 10 11 12 12 13 14 14 14 13 10 5 7 6 8 7 7 5 5 4 4 5 4 3
9 10 11 11 11 13 13 12 14 14 14 12 13 13 10 6 8 7 7 8 10 10 11 11 11 11 12 13 14 13 14 11 5 6 6 6 6 5 5 5 4 4 4 3
8 12 13 12 13 13 13 14 15 15 14 11 13 11 5 7 9 11 10 10 10 10 9 9 9 11 12 12 13 14 14 15 10 3 5 8 7 7 6 5 4 4 3 3
11 12 12 13 13 14 13 14 16 18 15 15 14 13 2 9 11 11 11 11 10 10 9 9 10 11 11 12 12 12 12 12 12 8 2 4 5 5 4 5 6 4 3 3
10 9 9 11 13 12 14 15 17 14 10 11 9 9 5 9 11 12 13 13 13 12 11 11 11 11 11 11 10 10 10 11 11 10 8 6 7 7 7 7 6 3 3 2
9 13 12 12 14 13 15 12 7 6 3 2 6 5 8 11 14 15 16 15 14 14 12 12 12 12 11 11 11 10 10 10 10 10 9 8 7 6 6 5 5 4 3 2
4 8 12 11 11 12 13 12 8 7 7 7 5 6 6 12 14 15 15 15 15 14 12 12 12 11 11 11 10 10 9 9 8 8 8 8 7 5 4 5 4 3 2 1
7 7 8 8 10 12 11 10 10 8 9 6 4 5 5 15 17 18 17 17 16 15 13 12 11 11 11 11 10 9 8 8 8 7 7 6 6 5 5 4 4 3 2 1
9 2 6 6 9 13 11 10 6 7 7 6 5 6 9 19 19 19 18 17 17 16 13 12 11 11 10 9 8 8 8 7 7 6 5 5 5 5 4 3 3 1 0 1
8 5 6 7 9 13 12 12 9 6 5 5 6 4 10 14 16 16 15 15 15 14 13 12 11 10 9 8 8 7 7 7 7 6 6 5 4 3 2 1 1 1 2 3
6 6 4 10 7 7 11 11 9 5 6 5 3 4 11 12 12 13 13 13 12 12 11 11 10 9 9 9 8 8 7 6 6 5 5 5 5 4 3 2 2 2 3 4
8 7 3 6 4 9 10 12 10 5 4 5 4 5 9 10 11 11 11 11 10 9 9 8 7 7 8 8 7 7 7 6 5 4 5 5 5 4 4 4 4 4 4 5
5 5 10 8 6 6 8 11 12 9 5 4 5 5 8 10 10 10 9 8 7 6 5 6 6 6 6 6 7 7 7 6 5 4 4 5 5 5 4 4 4 5 5 5
7 5 8 7 4 4 7 9 10 10 6 5 4 3 5 7 6 6 6 6 6 6 6 7 6 6 6 6 6 6 5 5 5 5 5 5 5 5 5 5 5 5 6 6
4 2 2 5 4 1 5 8 8 8 6 5 4 4 3 2 2 4 5 6 8 9 9 8 7 6 6 6 6 6 6 6 6 6 6 6 6 6 6 6 6 6 6 7
2 4 5 2 6 3 3 6 6 6 6 5 5 3 3 4 5 6 7 8 10 9 9 8 7 7 6 6 5 6 6 6 7 7 7 7 7 7 7 7 7 7 7 7
6 5 4 4 3 2 7 6 5 3 4 3 2 1 1 2 3 5 6 7 8 8 8 8 6 6 7 7 5 5 6 6 6 6 6 6 6 6 6 6 6 7 6 6
5 4 5 4 3 6 7 6 4 1 4 3 3 4 3 2 4 8 8 7 6 6 6 7 6 6 6 6 6 5 6 6 6 6 6 6 6 6 6 6 6 5 5 5
2 3 4 4 5 3 7 9 5 2 3 5 3 5 7 5 4 6 7 6 6 5 5 7 6 6 6 6 5 5 6 6 6 6 6 5 5 5 6 6 5 4 4 4
5 5 4 5 4 6 10 9 6 2 5 6 4 5 7 8 6 5 6 6 6 5 5 6 6 5 5 4 4 5 5 5 4 4 4 4 4 4 5 5 5 5 4 4
5 3 2 2 2 4 10 8 4 5 7 5 5 5 6 5 5 5 6 5 5 5 5 6 5 6 5 4 4 4 3 3 2 2 2 3 3 5 6 5 4 5 5 5
2 2 3 3 4 7 8 4 5 4 5 6 5 5 3 3 5 6 5 5 5 6 5 5 5 6 6 5 4 4 2 1 0 2 1 2 3 4 5 5 5 5 5 5
3 4 1 2 7 9 8 6 6 4 4 6 5 4 3 4 5 5 4 5 5 5 5 5 6 6 6 6 4 4 4 3 1 2 2 3 4 5 5 4 5 5 5 5
1 4 3 4 6 8 8 7 8 7 6 6 5 4 3 3 4 4 5 5 5 5 5 5 5 5 7 6 5 5 5 6 4 1 3 4 4 4 5 5 5 5 5 4
5 6 4 2 7 7 10 11 11 10 8 7 6 5 3 2 3 4 4 4 4 5 5 5 5 5 6 7 6 6 6 6 5 3 4 3 3 3 3 4 4 7 6 5
Wind_Direction
265 303 17 360 344 324 310 302 302 303 213 240 271 274 169 122 81 33 27 26 30 23 12 14 2 356 347 338 320 300 249 196 184 169 168 163 162 157 153 156 159 154 138 121
262 47 12 344 318 309 313 312 308 310 328 314 298 289 244 142 123 76 35 23 31 19 8 12 5 4 0 355 347 336 324 274 212 184 177 173 165 161 149 143 141 143 150 153
37 30 358 337 339 351 331 329 333 325 319 304 292 280 257 174 120 92 59 40 33 20 11 8 3 1 0 358 351 342 336 325 286 208 182 170 154 148 140 146 145 152 160 161
50 24 3 352 1 351 319 332 324 308 298 288 286 285 296 105 73 44 32 34 30 19 9 8 5 3 2 1 354 349 348 345 334 284 196 174 158 155 151 143 134 128 125 132
60 31 16 3 346 326 316 315 298 285 278 277 276 274 335 53 42 19 6 15 20 14 6 8 12 10 10 7 2 357 360 2 2 5 33 142 131 119 111 114 117 107 89 88
87 64 41 2 331 332 324 310 292 269 253 260 288 289 50 27 17 4 359 4 9 7 8 17 18 16 14 12 10 7 14 19 23 29 39 70 103 112 115 113 112 102 91 76
119 75 45 13 358 353 341 337 329 341 333 318 360 22 51 12 11 3 353 359 5 7 9 18 20 18 16 14 15 16 25 30 34 44 49 57 76 95 109 114 115 118 109 112
8 59 38 17 14 344 346 354 355 330 330 325 3 70 56 9 4 358 353 359 3 7 15 23 24 22 17 15 17 20 28 34 39 52 58 58 62 69 81 88 98 101 103 111
0 76 60 33 27 16 357 1 334 312 307 311 61 86 42 5 1 357 355 0 3 4 13 24 25 22 17 16 17 21 29 37 40 51 59 63 67 74 78 77 78 79 75 90
330 76 90 54 31 34 18 355 346 346 342 337 26 50 3 352 351 349 353 358 360 3 10 21 22 19 15 12 13 23 31 40 40 45 51 64 68 73 78 76 69 65 349 255
336 315 119 72 40 25 17 13 0 341 9 353 346 39 13 350 344 344 351 358 360 4 9 15 14 10 11 10 13 17 22 30 31 33 36 44 52 62 74 91 170 225 238 235
11 314 58 88 91 57 35 16 7 10 15 6 350 26 9 348 347 352 358 4 5 8 11 9 8 12 13 16 17 19 20 22 22 24 26 24 23 20 12 350 323 301 288 272
341 326 20 133 143 44 30 23 22 43 46 24 11 359 352 346 354 358 3 6 4 360 0 1 6 17 20 22 24 25 25 21 17 20 22 15 6 358 350 342 339 332 316 294
286 20 44 50 52 19 26 35 39 44 44 37 31 353 342 347 351 355 3 356 349 349 352 6 12 18 30 33 34 35 34 27 24 29 29 20 6 359 355 354 349 341 334 326
297 57 81 90 87 45 51 50 55 56 59 59 49 19 334 330 339 341 341 343 356 13 25 30 24 24 34 38 37 38 41 39 37 36 34 28 25 18 16 16 15 12 8 8
324 343 163 152 141 74 71 67 67 67 66 83 82 50 332 327 339 343 355 12 26 26 25 30 30 29 38 45 46 40 45 45 46 45 42 36 34 31 29 27 25 30 32 28
310 306 314 127 149 218 100 76 75 70 67 50 47 23 345 30 33 25 20 27 31 26 18 18 27 28 34 49 59 56 49 46 45 46 44 39 36 35 30 27 24 31 42 37
323 326 301 288 221 64 94 104 103 95 98 80 55 48 22 73 78 57 37 33 29 22 12 5 17 31 29 29 47 66 64 53 42 40 46 43 36 31 28 30 34 28 31 38
333 327 304 325 351 120 145 154 166 131 105 102 40 30 11 174 119 61 38 37 34 23 8 354 3 26 26 23 28 45 57 57 43 33 38 38 33 25 23 24 32 36 30 34
218 253 286 300 309 56 120 130 142 214 150 125 75 33 28 53 66 43 27 30 28 27 9 352 358 15 14 8 16 36 51 53 42 29 28 27 25 26 27 20 20 27 30 29
214 197 236 287 300 95 119 134 170 233 119 125 94 53 47 48 46 29 25 26 15 19 17 358 354 359 347 346 5 39 49 56 56 35 23 16 10 26 48 29 20 22 19 19
323 319 317 295 294 125 141 162 197 96 116 124 100 68 54 42 40 30 27 24 12 10 18 2 349 340 326 348 13 25 59 65 79 71 29 10 36 37 37 31 29 25 16 25
226 330 348 0 60 107 153 160 100 120 137 116 98 82 57 36 35 26 21 24 12 8 14 356 344 343 344 359 4 355 36 46 248 111 54 26 62 69 50 32 32 28 27 26
135 104 238 244 168 161 180 155 139 170 123 109 107 105 63 37 32 19 22 30 14 3 0 354 5 0 340 335 348 8 5 334 286 142 95 68 63 68 69 44 36 40 27 22
63 148 217 239 141 151 181 177 168 169 152 142 136 116 80 43 28 12 27 27 6 355 357 8 14 346 334 349 13 27 7 342 340 94 99 87 80 75 86 73 45 45 58 40
198 183 203 231 160 170 182 180 173 169 173 163 155 146 131 88 36 14 27 22 4 360 4 4 358 346 350 360 15 21 1 343 349 43 74 70 79 80 107 123 96 52 66 60